Location: Albuquerque Trailhead
(34.7934°N, 106.3736°W)
Time: 15:41:56
(UTC+00:00)

Meteor 1-29 - Pass Details

Date: 20 June 2021
Orbit: 434 x 457 km, 97.7° (Epoch: 27 July)

Event Time Altitude Azimuth Distance (km) Brightness Sun altitude
Rises 09:09:47 0° 13° (NNE) 2,467 7.8 -24.9°
Reaches altitude 10° 09:11:50 10° 15° (NNE) 1,586 6.6 -24.7°
Enters shadow 09:14:18 45° 26° (NNE) 627 4.0 -24.4°
